Time,TemperatureF,DewpointF,PressureIn,WindDirection,WindDirectionDegrees,WindSpeedMPH,WindSpeedGustMPH,Humidity,HourlyPrecipIn,Conditions,Clouds,dailyrainin,SoftwareType,DateUTC
2013-04-26 00:03:00,67.0,61.0,30.21,NW,315,3.0,6.0,82,99.99,,,-99.99,,2013-04-26 04:03:00,
2013-04-26 00:12:00,67.0,61.0,30.21,NW,315,3.0,6.0,82,99.99,,,-99.99,,2013-04-26 04:12:00,
2013-04-26 00:23:00,67.0,62.0,30.21,SE,124,1.0,3.0,84,99.99,,,-99.99,,2013-04-26 04:23:00,
2013-04-26 00:32:00,67.0,62.0,30.21,NW,309,2.0,5.0,85,99.99,,,-99.99,,2013-04-26 04:32:00,
2013-04-26 00:43:00,67.0,62.0,30.21,NW,309,2.0,5.0,85,99.99,,,-99.99,,2013-04-26 04:43:00,
2013-04-26 00:53:00,66.0,62.0,30.21,WNW,301,1.0,2.0,86,99.99,,,-99.99,,2013-04-26 04:53:00,
2013-04-26 01:02:00,66.0,62.0,30.21,North,0,0.0,0.0,87,99.99,,,-99.99,,2013-04-26 05:02:00,
2013-04-26 01:12:00,66.0,62.0,30.21,North,0,0.0,0.0,87,99.99,,,-99.99,,2013-04-26 05:12:00,
2013-04-26 01:22:00,66.0,62.0,30.21,North,0,0.0,0.0,87,99.99,,,-99.99,,2013-04-26 05:22:00,
2013-04-26 01:32:00,66.0,62.0,30.21,North,0,0.0,0.0,88,99.99,,,-99.99,,2013-04-26 05:32:00,
2013-04-26 01:42:00,66.0,62.0,30.21,North,0,0.0,0.0,88,99.99,,,-99.99,,2013-04-26 05:42:00,
2013-04-26 01:52:00,65.0,62.0,30.20,North,0,0.0,0.0,90,99.99,,,-99.99,,2013-04-26 05:52:00,
2013-04-26 02:02:00,65.0,62.0,30.19,North,0,0.0,0.0,91,99.99,,,-99.99,,2013-04-26 06:02:00,
2013-04-26 02:11:00,65.0,62.0,30.19,North,0,0.0,0.0,91,99.99,,,-99.99,,2013-04-26 06:11:00,
2013-04-26 02:21:00,65.0,63.0,30.18,North,0,0.0,0.0,92,99.99,,,-99.99,,2013-04-26 06:21:00,
2013-04-26 02:32:00,65.0,63.0,30.18,North,0,0.0,0.0,93,99.99,,,-99.99,,2013-04-26 06:32:00,
2013-04-26 02:42:00,65.0,63.0,30.18,North,0,0.0,0.0,93,99.99,,,-99.99,,2013-04-26 06:42:00,
2013-04-26 02:52:00,65.0,63.0,30.17,North,0,0.0,0.0,94,99.99,,,-99.99,,2013-04-26 06:52:00,
2013-04-26 03:01:00,64.0,63.0,30.17,North,0,0.0,0.0,95,99.99,,,-99.99,,2013-04-26 07:01:00,
2013-04-26 03:11:00,64.0,63.0,30.17,North,0,0.0,0.0,95,99.99,,,-99.99,,2013-04-26 07:11:00,
2013-04-26 03:22:00,64.0,63.0,30.16,North,0,0.0,0.0,95,99.99,,,-99.99,,2013-04-26 07:22:00,
2013-04-26 03:31:00,64.0,63.0,30.16,North,0,0.0,0.0,96,99.99,,,-99.99,,2013-04-26 07:31:00,
2013-04-26 03:42:00,64.0,63.0,30.16,North,0,0.0,0.0,96,99.99,,,-99.99,,2013-04-26 07:42:00,
2013-04-26 03:52:00,64.0,63.0,30.16,North,0,0.0,0.0,96,99.99,,,-99.99,,2013-04-26 07:52:00,
2013-04-26 04:02:00,63.0,62.0,30.16,North,0,0.0,0.0,96,99.99,,,-99.99,,2013-04-26 08:02:00,
2013-04-26 04:11:00,63.0,62.0,30.16,North,0,0.0,0.0,96,99.99,,,-99.99,,2013-04-26 08:11:00,
2013-04-26 04:22:00,63.0,62.0,30.16,North,0,0.0,0.0,97,99.99,,,-99.99,,2013-04-26 08:22:00,
2013-04-26 04:32:00,63.0,62.0,30.16,North,0,0.0,0.0,97,99.99,,,-99.99,,2013-04-26 08:32:00,
2013-04-26 04:42:00,63.0,62.0,30.16,North,0,0.0,0.0,97,99.99,,,-99.99,,2013-04-26 08:42:00,
2013-04-26 04:52:00,62.0,61.0,30.16,North,0,0.0,0.0,97,99.99,,,-99.99,,2013-04-26 08:52:00,
2013-04-26 05:01:00,62.0,61.0,30.16,North,0,0.0,0.0,98,99.99,,,-99.99,,2013-04-26 09:01:00,
2013-04-26 05:11:00,62.0,61.0,30.16,North,0,0.0,0.0,98,99.99,,,-99.99,,2013-04-26 09:11:00,
2013-04-26 05:21:00,62.0,61.0,30.15,North,0,0.0,0.0,98,99.99,,,-99.99,,2013-04-26 09:21:00,
2013-04-26 05:33:00,62.0,61.0,30.16,North,0,0.0,0.0,98,99.99,,,-99.99,,2013-04-26 09:33:00,
2013-04-26 05:43:00,62.0,61.0,30.16,North,0,0.0,0.0,98,99.99,,,-99.99,,2013-04-26 09:43:00,
2013-04-26 05:53:00,61.0,60.0,30.16,North,0,0.0,0.0,98,99.99,,,-99.99,,2013-04-26 09:53:00,
2013-04-26 06:03:00,61.0,61.0,30.16,North,0,0.0,0.0,99,99.99,,,-99.99,,2013-04-26 10:03:00,
2013-04-26 06:12:00,61.0,61.0,30.16,North,0,0.0,0.0,99,99.99,,,-99.99,,2013-04-26 10:12:00,
2013-04-26 06:23:00,61.0,61.0,30.16,North,349,1.0,2.0,99,99.99,,,-99.99,,2013-04-26 10:23:00,
2013-04-26 06:33:00,61.0,61.0,30.17,North,0,0.0,0.0,99,99.99,,,-99.99,,2013-04-26 10:33:00,
2013-04-26 06:42:00,61.0,61.0,30.17,North,0,0.0,0.0,99,99.99,,,-99.99,,2013-04-26 10:42:00,
2013-04-26 06:52:00,61.0,61.0,30.17,North,0,0.0,0.0,99,99.99,,,-99.99,,2013-04-26 10:52:00,
2013-04-26 07:02:00,60.0,60.0,30.17,North,0,0.0,0.0,100,99.99,,,-99.99,,2013-04-26 11:02:00,
2013-04-26 07:11:00,60.0,60.0,30.17,North,0,0.0,0.0,100,99.99,,,-99.99,,2013-04-26 11:11:00,
2013-04-26 07:22:00,60.0,60.0,30.18,North,0,0.0,0.0,100,99.99,,,-99.99,,2013-04-26 11:22:00,
2013-04-26 07:32:00,61.0,61.0,30.19,North,0,0.0,0.0,100,99.99,,,-99.99,,2013-04-26 11:32:00,
2013-04-26 07:42:00,61.0,61.0,30.19,North,0,0.0,0.0,100,99.99,,,-99.99,,2013-04-26 11:42:00,
2013-04-26 07:52:00,61.0,61.0,30.19,North,0,0.0,0.0,100,99.99,,,-99.99,,2013-04-26 11:52:00,
2013-04-26 08:01:00,62.0,62.0,30.20,North,0,0.0,0.0,100,99.99,,,-99.99,,2013-04-26 12:01:00,
2013-04-26 08:11:00,62.0,62.0,30.20,North,0,0.0,0.0,100,99.99,,,-99.99,,2013-04-26 12:11:00,
2013-04-26 08:21:00,63.0,63.0,30.20,North,0,0.0,0.0,100,99.99,,,-99.99,,2013-04-26 12:21:00,
2013-04-26 08:32:00,65.0,65.0,30.21,North,0,0.0,0.0,100,99.99,,,-99.99,,2013-04-26 12:32:00,
2013-04-26 08:42:00,65.0,65.0,30.21,North,0,0.0,0.0,100,99.99,,,-99.99,,2013-04-26 12:42:00,
2013-04-26 08:52:00,67.0,67.0,30.21,North,0,0.0,0.0,100,99.99,,,-99.99,,2013-04-26 12:52:00,
2013-04-26 09:01:00,69.0,67.0,30.21,North,0,0.0,0.0,92,99.99,,,-99.99,,2013-04-26 13:01:00,
2013-04-26 09:11:00,69.0,67.0,30.21,North,0,0.0,0.0,92,99.99,,,-99.99,,2013-04-26 13:11:00,
2013-04-26 09:22:00,72.0,65.0,30.22,North,0,0.0,0.0,78,99.99,,,-99.99,,2013-04-26 13:22:00,
2013-04-26 09:32:00,75.0,64.0,30.22,North,0,0.0,0.0,69,99.99,,,-99.99,,2013-04-26 13:32:00,
2013-04-26 09:42:00,75.0,64.0,30.22,North,0,0.0,0.0,69,99.99,,,-99.99,,2013-04-26 13:42:00,
2013-04-26 09:52:00,76.0,64.0,30.23,SSW,211,1.0,4.0,66,99.99,,,-99.99,,2013-04-26 13:52:00,
2013-04-26 10:01:00,77.0,62.0,30.23,ENE,59,0.0,2.0,60,99.99,,,-99.99,,2013-04-26 14:01:00,
2013-04-26 10:11:00,77.0,62.0,30.23,ENE,59,0.0,2.0,60,99.99,,,-99.99,,2013-04-26 14:11:00,
2013-04-26 10:21:00,78.0,63.0,30.23,South,188,1.0,3.0,60,99.99,,,-99.99,,2013-04-26 14:21:00,
2013-04-26 10:32:00,78.0,62.0,30.24,NE,55,1.0,4.0,58,99.99,,,-99.99,,2013-04-26 14:32:00,
2013-04-26 10:42:00,78.0,62.0,30.24,NE,55,1.0,4.0,58,99.99,,,-99.99,,2013-04-26 14:42:00,
2013-04-26 10:52:00,79.0,63.0,30.24,ESE,113,2.0,6.0,58,99.99,,,-99.99,,2013-04-26 14:52:00,
2013-04-26 11:01:00,79.0,63.0,30.24,NNE,20,2.0,4.0,58,99.99,,,-99.99,,2013-04-26 15:01:00,
2013-04-26 11:12:00,79.0,63.0,30.24,NNE,20,2.0,4.0,58,99.99,,,-99.99,,2013-04-26 15:12:00,
2013-04-26 11:21:00,80.0,63.0,30.24,North,4,3.0,10.0,57,99.99,,,-99.99,,2013-04-26 15:21:00,
2013-04-26 11:33:00,80.0,62.0,30.24,NNE,14,4.0,9.0,54,99.99,,,-99.99,,2013-04-26 15:33:00,
2013-04-26 11:43:00,80.0,62.0,30.24,NNE,14,4.0,9.0,54,99.99,,,-99.99,,2013-04-26 15:43:00,
2013-04-26 11:53:00,81.0,62.0,30.24,NE,45,2.0,6.0,53,99.99,,,-99.99,,2013-04-26 15:53:00,
2013-04-26 12:03:00,82.0,63.0,30.24,NE,45,4.0,8.0,53,99.99,,,-99.99,,2013-04-26 16:03:00,
2013-04-26 12:12:00,82.0,63.0,30.24,NE,45,4.0,8.0,53,99.99,,,-99.99,,2013-04-26 16:12:00,
2013-04-26 12:23:00,82.0,62.0,30.24,East,89,4.0,12.0,51,99.99,,,-99.99,,2013-04-26 16:23:00,
2013-04-26 12:33:00,82.0,63.0,30.24,NE,49,5.0,12.0,53,99.99,,,-99.99,,2013-04-26 16:33:00,
2013-04-26 12:42:00,82.0,63.0,30.24,NE,49,5.0,12.0,53,99.99,,,-99.99,,2013-04-26 16:42:00,
2013-04-26 12:53:00,83.0,64.0,30.23,ESE,122,5.0,9.0,52,99.99,,,-99.99,,2013-04-26 16:53:00,
2013-04-26 13:02:00,83.0,64.0,30.23,NNE,13,4.0,10.0,52,99.99,,,-99.99,,2013-04-26 17:02:00,
2013-04-26 13:12:00,83.0,64.0,30.23,NNE,13,4.0,10.0,52,99.99,,,-99.99,,2013-04-26 17:12:00,
2013-04-26 13:22:00,83.0,62.0,30.22,NE,55,5.0,10.0,50,99.99,,,-99.99,,2013-04-26 17:22:00,
2013-04-26 13:32:00,84.0,63.0,30.22,SE,125,3.0,10.0,49,99.99,,,-99.99,,2013-04-26 17:32:00,
2013-04-26 13:42:00,84.0,63.0,30.22,SE,125,3.0,10.0,49,99.99,,,-99.99,,2013-04-26 17:42:00,
2013-04-26 13:52:00,84.0,63.0,30.22,NE,48,5.0,10.0,50,99.99,,,-99.99,,2013-04-26 17:52:00,
2013-04-26 14:02:00,84.0,62.0,30.21,North,7,6.0,9.0,48,99.99,,,-99.99,,2013-04-26 18:02:00,
2013-04-26 14:12:00,84.0,63.0,30.20,NNE,17,7.0,11.0,49,99.99,,,-99.99,,2013-04-26 18:12:00,
2013-04-26 14:22:00,84.0,63.0,30.20,NNE,17,7.0,11.0,49,99.99,,,-99.99,,2013-04-26 18:22:00,
2013-04-26 14:33:00,85.0,62.0,30.20,ESE,103,4.0,8.0,47,99.99,,,-99.99,,2013-04-26 18:33:00,
2013-04-26 14:42:00,85.0,62.0,30.20,ESE,103,4.0,8.0,47,99.99,,,-99.99,,2013-04-26 18:42:00,
2013-04-26 14:52:00,85.0,61.0,30.20,East,101,4.0,9.0,45,99.99,,,-99.99,,2013-04-26 18:52:00,
2013-04-26 15:01:00,86.0,61.0,30.19,ENE,59,5.0,10.0,43,99.99,,,-99.99,,2013-04-26 19:01:00,
2013-04-26 15:12:00,86.0,61.0,30.19,ENE,59,5.0,10.0,43,99.99,,,-99.99,,2013-04-26 19:12:00,
2013-04-26 15:22:00,87.0,60.0,30.18,East,91,6.0,11.0,40,99.99,,,-99.99,,2013-04-26 19:22:00,
2013-04-26 15:32:00,86.0,61.0,30.18,North,8,4.0,8.0,43,99.99,,,-99.99,,2013-04-26 19:32:00,
2013-04-26 15:42:00,86.0,61.0,30.18,North,8,4.0,8.0,43,99.99,,,-99.99,,2013-04-26 19:42:00,
2013-04-26 15:52:00,87.0,60.0,30.18,East,98,3.0,7.0,40,99.99,,,-99.99,,2013-04-26 19:52:00,
2013-04-26 16:02:00,86.0,60.0,30.18,ESE,104,4.0,9.0,41,99.99,,,-99.99,,2013-04-26 20:02:00,
2013-04-26 16:11:00,86.0,60.0,30.17,NE,55,3.0,10.0,42,99.99,,,-99.99,,2013-04-26 20:11:00,
2013-04-26 16:21:00,86.0,60.0,30.17,NE,55,3.0,10.0,42,99.99,,,-99.99,,2013-04-26 20:21:00,
2013-04-26 16:32:00,86.0,61.0,30.16,East,101,3.0,9.0,43,99.99,,,-99.99,,2013-04-26 20:32:00,
2013-04-26 16:42:00,86.0,61.0,30.16,East,101,3.0,9.0,43,99.99,,,-99.99,,2013-04-26 20:42:00,
2013-04-26 16:52:00,86.0,61.0,30.16,East,100,4.0,10.0,43,99.99,,,-99.99,,2013-04-26 20:52:00,
2013-04-26 17:02:00,87.0,60.0,30.16,ESE,120,6.0,12.0,41,99.99,,,-99.99,,2013-04-26 21:02:00,
2013-04-26 17:11:00,87.0,60.0,30.16,ESE,120,6.0,12.0,41,99.99,,,-99.99,,2013-04-26 21:11:00,
2013-04-26 17:22:00,85.0,61.0,30.16,ENE,58,4.0,9.0,45,99.99,,,-99.99,,2013-04-26 21:22:00,
2013-04-26 17:33:00,85.0,61.0,30.16,East,89,6.0,11.0,45,99.99,,,-99.99,,2013-04-26 21:33:00,
2013-04-26 17:42:00,85.0,61.0,30.16,East,89,6.0,11.0,45,99.99,,,-99.99,,2013-04-26 21:42:00,
2013-04-26 17:53:00,85.0,61.0,30.16,ESE,103,5.0,14.0,45,99.99,,,-99.99,,2013-04-26 21:53:00,
2013-04-26 18:02:00,85.0,61.0,30.16,ESE,114,4.0,10.0,44,99.99,,,-99.99,,2013-04-26 22:02:00,
2013-04-26 18:12:00,85.0,61.0,30.16,ESE,114,4.0,10.0,44,99.99,,,-99.99,,2013-04-26 22:12:00,
2013-04-26 18:23:00,84.0,60.0,30.16,ESE,108,8.0,15.0,44,99.99,,,-99.99,,2013-04-26 22:23:00,
2013-04-26 18:33:00,83.0,59.0,30.16,ESE,103,6.0,13.0,44,99.99,,,-99.99,,2013-04-26 22:33:00,
2013-04-26 18:42:00,83.0,59.0,30.16,ESE,103,6.0,13.0,44,99.99,,,-99.99,,2013-04-26 22:42:00,
2013-04-26 18:52:00,82.0,60.0,30.16,East,101,4.0,9.0,47,99.99,,,-99.99,,2013-04-26 22:52:00,
2013-04-26 19:02:00,82.0,59.0,30.16,East,101,5.0,10.0,45,99.99,,,-99.99,,2013-04-26 23:02:00,
2013-04-26 19:12:00,82.0,59.0,30.16,East,101,5.0,10.0,45,99.99,,,-99.99,,2013-04-26 23:12:00,
2013-04-26 19:21:00,82.0,60.0,30.16,East,101,4.0,9.0,48,99.99,,,-99.99,,2013-04-26 23:21:00,
2013-04-26 19:32:00,81.0,61.0,30.17,East,97,5.0,10.0,50,99.99,,,-99.99,,2013-04-26 23:32:00,
2013-04-26 19:42:00,81.0,61.0,30.17,East,97,5.0,10.0,50,99.99,,,-99.99,,2013-04-26 23:42:00,
2013-04-26 19:52:00,80.0,61.0,30.17,East,96,4.0,9.0,52,99.99,,,-99.99,,2013-04-26 23:52:00,
2013-04-26 20:01:00,79.0,61.0,30.17,East,90,3.0,9.0,55,99.99,,,-99.99,,2013-04-27 00:01:00,
2013-04-26 20:11:00,79.0,61.0,30.17,East,90,3.0,9.0,55,99.99,,,-99.99,,2013-04-27 00:11:00,
2013-04-26 20:21:00,78.0,62.0,30.17,ESE,110,4.0,7.0,57,99.99,,,-99.99,,2013-04-27 00:21:00,
2013-04-26 20:32:00,77.0,62.0,30.18,ESE,114,4.0,8.0,60,99.99,,,-99.99,,2013-04-27 00:32:00,
2013-04-26 20:42:00,77.0,62.0,30.18,ESE,114,4.0,8.0,60,99.99,,,-99.99,,2013-04-27 00:42:00,
2013-04-26 20:52:00,76.0,62.0,30.18,ESE,107,2.0,7.0,63,99.99,,,-99.99,,2013-04-27 00:52:00,
2013-04-26 21:01:00,75.0,63.0,30.19,East,101,2.0,5.0,66,99.99,,,-99.99,,2013-04-27 01:01:00,
2013-04-26 21:12:00,75.0,63.0,30.19,East,101,2.0,5.0,66,99.99,,,-99.99,,2013-04-27 01:12:00,
2013-04-26 21:21:00,75.0,63.0,30.19,East,101,1.0,4.0,67,99.99,,,-99.99,,2013-04-27 01:21:00,
2013-04-26 21:32:00,74.0,63.0,30.20,East,100,0.0,3.0,69,99.99,,,-99.99,,2013-04-27 01:32:00,
2013-04-26 21:42:00,74.0,63.0,30.20,East,100,0.0,3.0,69,99.99,,,-99.99,,2013-04-27 01:42:00,
2013-04-26 21:52:00,73.0,63.0,30.21,ESE,118,1.0,5.0,71,99.99,,,-99.99,,2013-04-27 01:52:00,
2013-04-26 22:02:00,73.0,64.0,30.21,East,100,3.0,5.0,73,99.99,,,-99.99,,2013-04-27 02:02:00,
2013-04-26 22:11:00,73.0,64.0,30.21,East,100,3.0,5.0,73,99.99,,,-99.99,,2013-04-27 02:11:00,
2013-04-26 22:22:00,72.0,63.0,30.22,ESE,113,0.0,2.0,74,99.99,,,-99.99,,2013-04-27 02:22:00,
2013-04-26 22:32:00,72.0,64.0,30.22,ENE,73,0.0,1.0,76,99.99,,,-99.99,,2013-04-27 02:32:00,
2013-04-26 22:42:00,72.0,64.0,30.22,ENE,73,0.0,1.0,76,99.99,,,-99.99,,2013-04-27 02:42:00,
2013-04-26 22:52:00,71.0,64.0,30.22,North,0,0.0,0.0,79,99.99,,,-99.99,,2013-04-27 02:52:00,
2013-04-26 23:02:00,71.0,64.0,30.22,North,11,0.0,1.0,79,99.99,,,-99.99,,2013-04-27 03:02:00,
2013-04-26 23:11:00,71.0,64.0,30.22,North,11,0.0,1.0,79,99.99,,,-99.99,,2013-04-27 03:11:00,
2013-04-26 23:22:00,70.0,64.0,30.23,ESE,107,0.0,2.0,82,99.99,,,-99.99,,2013-04-27 03:22:00,
2013-04-26 23:33:00,70.0,65.0,30.23,North,0,0.0,0.0,83,99.99,,,-99.99,,2013-04-27 03:33:00,
2013-04-26 23:43:00,70.0,65.0,30.23,North,0,0.0,0.0,83,99.99,,,-99.99,,2013-04-27 03:43:00,
2013-04-26 23:53:00,69.0,65.0,30.23,North,0,0.0,0.0,86,99.99,,,-99.99,,2013-04-27 03:53:00,